• In Uzbekistan
  • List of Countries
  • For 7 days
  • Water Temperature
  • Satellite Maps
  • Weather Map
  • Weather Widgets
  • user-avatar
    Login

    Hourly Weather Rozdollya

    Today, 17 December, Sunday

    Time Temperature Precipitation Wind Pressure Humidity
    00:00 +10°C° 0 mm 7 mps 757 mmHg 71%
    01:00 +10°C° 0 mm 7 mps 756 mmHg 71%
    02:00 +10°C° 0 mm 7 mps 756 mmHg 69%
    03:00 +10°C° 0 mm 7 mps 756 mmHg 71%
    04:00 +10°C° 0 mm 7 mps 756 mmHg 72%
    05:00 +10°C° 0 mm 6 mps 756 mmHg 73%
    06:00 +10°C° 0.1 mm 6 mps 756 mmHg 78%
    07:00 +10°C° 0.1 mm 6 mps 756 mmHg 83%
    08:00 +10°C° 0 mm 6 mps 756 mmHg 89%
    09:00 +11°C° 0.4 mm 6 mps 757 mmHg 88%
    10:00 +11°C° 0.4 mm 6 mps 757 mmHg 87%
    11:00 +11°C° 0.4 mm 6 mps 757 mmHg 87%
    12:00 +12°C° 0.4 mm 5 mps 757 mmHg 87%
    13:00 +12°C° 0.4 mm 5 mps 757 mmHg 88%
    14:00 +10°C° 0 mm 5 mps 757 mmHg 91%
    15:00 +10°C° 0.2 mm 5 mps 756 mmHg 89%
    16:00 +10°C° 0.2 mm 6 mps 756 mmHg 87%
    17:00 +10°C° 0.2 mm 6 mps 756 mmHg 85%
    18:00 +10°C° 0.4 mm 6 mps 756 mmHg 85%
    19:00 +9°C° 0.4 mm 7 mps 756 mmHg 85%
    20:00 +9°C° 0.4 mm 7 mps 756 mmHg 85%
    21:00 +9°C° 0.3 mm 7 mps 756 mmHg 86%
    22:00 +9°C° 0.3 mm 6 mps 755 mmHg 86%
    23:00 +9°C° 0.3 mm 6 mps 755 mmHg 87%

    Tomorrow, 18 December, Monday

    Time Temperature Precipitation Wind Pressure Humidity
    00:00 +9°C° 1.7 mm 5 mps 755 mmHg 89%
    01:00 +9°C° 1.7 mm 5 mps 755 mmHg 91%
    02:00 +9°C° 1.7 mm 5 mps 754 mmHg 92%
    03:00 +9°C° 1 mm 5 mps 754 mmHg 92%
    04:00 +9°C° 1 mm 6 mps 754 mmHg 91%
    05:00 +9°C° 1 mm 6 mps 753 mmHg 90%
    06:00 +9°C° 0.4 mm 6 mps 753 mmHg 90%
    07:00 +9°C° 0.4 mm 6 mps 753 mmHg 90%
    08:00 +10°C° 0.4 mm 6 mps 753 mmHg 90%
    09:00 +9°C° 0.1 mm 7 mps 754 mmHg 87%
    10:00 +7°C° 0.1 mm 8 mps 754 mmHg 85%
    11:00 +7°C° 0.1 mm 9 mps 755 mmHg 82%
    12:00 +6°C° 0 mm 9 mps 755 mmHg 79%
    13:00 +5°C° 0 mm 9 mps 756 mmHg 75%
    14:00 +5°C° 0 mm 8 mps 756 mmHg 72%
    15:00 +4°C° 0 mm 8 mps 757 mmHg 72%
    16:00 +3°C° 0 mm 7 mps 758 mmHg 72%
    17:00 +3°C° 0 mm 6 mps 758 mmHg 73%
    18:00 +2°C° 0 mm 6 mps 759 mmHg 72%
    19:00 +2°C° 0 mm 5 mps 759 mmHg 72%
    20:00 +2°C° 0 mm 5 mps 760 mmHg 72%
    21:00 +1°C° 0 mm 5 mps 760 mmHg 72%
    22:00 +1°C° 0 mm 5 mps 760 mmHg 73%
    23:00 +1°C° 0 mm 5 mps 760 mmHg 73%

    Day after tomorrow, 19 December, Tuesday

    Time Temperature Precipitation Wind Pressure Humidity
    00:00 0°C° 0 mm 4 mps 761 mmHg 75%
    01:00 0°C° 0 mm 4 mps 761 mmHg 76%
    02:00 -1°C° 0 mm 4 mps 761 mmHg 78%
    03:00 -1°C° 0 mm 4 mps 762 mmHg 78%
    04:00 -1°C° 0 mm 5 mps 762 mmHg 79%
    05:00 -1°C° 0 mm 5 mps 762 mmHg 80%
    06:00 -2°C° 0 mm 5 mps 762 mmHg 80%
    07:00 -2°C° 0 mm 4 mps 763 mmHg 80%
    08:00 -1°C° 0 mm 3 mps 763 mmHg 80%
    09:00 0°C° 0 mm 3 mps 764 mmHg 76%
    10:00 -1°C° 0 mm 4 mps 764 mmHg 72%
    11:00 0°C° 0 mm 4 mps 765 mmHg 68%
    12:00 +1°C° 0 mm 4 mps 764 mmHg 66%
    13:00 +1°C° 0 mm 4 mps 764 mmHg 64%
    14:00 +1°C° 0 mm 4 mps 764 mmHg 62%
    15:00 +2°C° 0 mm 3 mps 765 mmHg 65%
    16:00 +1°C° 0 mm 3 mps 765 mmHg 68%
    17:00 +2°C° 0 mm 2 mps 765 mmHg 71%
    18:00 +1°C° 0 mm 2 mps 766 mmHg 73%
    19:00 +1°C° 0 mm 2 mps 766 mmHg 74%
    20:00 +1°C° 0 mm 2 mps 766 mmHg 76%
    21:00 +1°C° 0 mm 2 mps 766 mmHg 77%
    22:00 -1°C° 0 mm 2 mps 766 mmHg 78%
    23:00 -1°C° 0 mm 2 mps 767 mmHg 79%

    20 December, Wednesday

    Time Temperature Precipitation Wind Pressure Humidity
    00:00 -1°C° 0 mm 2 mps 767 mmHg 79%
    01:00 -1°C° 0 mm 2 mps 767 mmHg 80%
    02:00 -1°C° 0 mm 2 mps 767 mmHg 80%
    03:00 -1°C° 0 mm 2 mps 767 mmHg 80%
    04:00 0°C° 0 mm 1 mps 767 mmHg 80%
    05:00 0°C° 0 mm 1 mps 767 mmHg 80%
    06:00 +1°C° 0 mm 1 mps 767 mmHg 78%
    07:00 +1°C° 0 mm 1 mps 767 mmHg 77%
    08:00 -1°C° 0 mm 2 mps 768 mmHg 76%
    09:00 -1°C° 0 mm 2 mps 768 mmHg 72%
    10:00 +1°C° 0 mm 2 mps 768 mmHg 68%
    11:00 +2°C° 0 mm 2 mps 768 mmHg 64%
    12:00 +2°C° 0 mm 2 mps 767 mmHg 62%
    13:00 +2°C° 0 mm 2 mps 767 mmHg 60%
    14:00 +3°C° 0 mm 2 mps 767 mmHg 57%
    15:00 +1°C° 0 mm 3 mps 767 mmHg 61%
    16:00 +1°C° 0 mm 3 mps 767 mmHg 64%
    17:00 0°C° 0 mm 3 mps 767 mmHg 67%
    18:00 0°C° 0 mm 3 mps 767 mmHg 67%
    19:00 0°C° 0 mm 3 mps 767 mmHg 68%
    20:00 0°C° 0 mm 3 mps 767 mmHg 68%
    21:00 -1°C° 0.4 mm 4 mps 767 mmHg 72%
    22:00 -2°C° 0.4 mm 4 mps 767 mmHg 75%
    23:00 -2°C° 0.4 mm 5 mps 767 mmHg 78%

    21 December, Thursday

    Time Temperature Precipitation Wind Pressure Humidity
    00:00 -2°C° 1.2 mm 5 mps 766 mmHg 83%
    01:00 -2°C° 1.2 mm 5 mps 766 mmHg 89%
    02:00 -4°C° 1.2 mm 5 mps 766 mmHg 95%
    03:00 -4°C° 1 mm 6 mps 766 mmHg 94%
    04:00 -4°C° 1 mm 6 mps 766 mmHg 94%
    05:00 -4°C° 1 mm 6 mps 766 mmHg 94%
    06:00 -4°C° 0.3 mm 6 mps 766 mmHg 93%
    07:00 -4°C° 0.3 mm 7 mps 766 mmHg 93%
    08:00 -4°C° 0.3 mm 7 mps 766 mmHg 92%
    09:00 -4°C° 0.1 mm 7 mps 767 mmHg 89%
    10:00 -4°C° 0.1 mm 7 mps 767 mmHg 87%
    11:00 -3°C° 0.1 mm 7 mps 767 mmHg 84%
    12:00 -3°C° 0 mm 7 mps 767 mmHg 83%
    13:00 -3°C° 0 mm 6 mps 767 mmHg 82%
    14:00 -3°C° 0 mm 6 mps 767 mmHg 81%
    15:00 -4°C° 0 mm 5 mps 767 mmHg 82%
    16:00 -3°C° 0 mm 4 mps 766 mmHg 82%
    17:00 -4°C° 0 mm 4 mps 766 mmHg 83%
    18:00 -4°C° 0 mm 3 mps 766 mmHg 83%
    19:00 -5°C° 0 mm 3 mps 766 mmHg 83%
    20:00 -5°C° 0 mm 3 mps 766 mmHg 82%
    21:00 -5°C° 0 mm 3 mps 766 mmHg 83%
    22:00 -5°C° 0 mm 3 mps 765 mmHg 84%
    23:00 -4°C° 0 mm 2 mps 765 mmHg 85%

    22 December, Friday

    Time Temperature Precipitation Wind Pressure Humidity
    00:00 -4°C° 0 mm 2 mps 765 mmHg 86%
    01:00 -4°C° 0 mm 2 mps 764 mmHg 86%
    02:00 -4°C° 0 mm 2 mps 764 mmHg 86%
    03:00 -4°C° 0 mm 2 mps 764 mmHg 86%
    04:00 -5°C° 0 mm 2 mps 763 mmHg 86%
    05:00 -5°C° 0 mm 2 mps 763 mmHg 86%
    06:00 -5°C° 0 mm 2 mps 763 mmHg 86%
    07:00 -5°C° 0 mm 2 mps 763 mmHg 87%
    08:00 -5°C° 0 mm 2 mps 763 mmHg 87%
    09:00 -4°C° 0 mm 2 mps 763 mmHg 86%
    10:00 -3°C° 0 mm 2 mps 763 mmHg 84%
    11:00 -1°C° 0 mm 3 mps 763 mmHg 83%
    12:00 -1°C° 0 mm 3 mps 763 mmHg 84%
    13:00 -1°C° 0 mm 3 mps 762 mmHg 85%
    14:00 -1°C° 0 mm 3 mps 762 mmHg 86%
    15:00 -1°C° 0 mm 3 mps 762 mmHg 87%
    16:00 -2°C° 0 mm 3 mps 762 mmHg 88%
    17:00 -3°C° 0 mm 4 mps 762 mmHg 89%
    18:00 -3°C° 0 mm 4 mps 761 mmHg 88%
    19:00 -2°C° 0 mm 5 mps 761 mmHg 88%
    20:00 -2°C° 0 mm 5 mps 760 mmHg 87%
    21:00 -2°C° 0 mm 5 mps 760 mmHg 87%
    22:00 -2°C° 0 mm 6 mps 759 mmHg 87%
    23:00 -2°C° 0 mm 6 mps 759 mmHg 86%
    Show more